マクノート彗星

353P/McNaught (2017)

English version
Home page
Updated on October 9, 2017

---------------------------------------------------------------------

・ プロフィール

符号 353P/2017 M1
検出日 2017年6月19日
検出光度 19.9等
検出者 K. Sarneczky and R. Konyves-Toth (Konkoly Observatory)

・ 写真集

・ 軌道要素

Epoch 2018 Jan. 2.0 TT = JDT 2458120.5
T 2017 Dec. 20.94591 TT                                 MPCW
q   2.2140069            (2000.0)            P               Q
n   0.11570769     Peri.  230.39333     +0.91111484     +0.07431208
a   4.1708819      Node   121.57373     -0.02697066     +0.99225296
e   0.4691754      Incl.   28.41389     -0.41126917     +0.09955795
P   8.52
From 71 observations 2008 May 30-2017 June 20, mean residual 0".5.

・ 光度変化

        14.0 + 5 logΔ + 10.0 log r

---------------------------------------------------------------------

軌道要素はM.P.E.C. 2017-M28に掲載されたものです。
光度グラフはComet for Windowsで作成したものです。

---------------------------------------------------------------------

Copyright(C) Seiichi Yoshida (comet@aerith.net). All rights reserved.